Vorticity
6 5 5 5 5 6 7 8 9 9 8 7 7 7 8 7 9 10 7 21 2 1 15 11 6 7 6 6 4 6 11 6 11 12 9 14 13 0 11 5 5 -2 7 -19 -3
6 6 6 6 7 8 8 6 7 8 8 7 6 7 7 8 9 13 7 4 14 11 6 6 9 12 14 13 15 17 15 16 19 2 -1 -7 11 15 -0 -4 19 14 41 9 9
7 6 6 8 6 5 8 5 5 6 8 8 7 8 7 12 12 0 11 10 4 6 10 11 11 12 17 18 13 16 6 6 4 2 0 7 -3 8 16 25 -3 11 7 14 8
6 6 7 5 5 5 5 5 6 8 8 8 8 6 8 11 14 7 4 4 8 9 11 10 13 14 13 14 3 10 17 17 11 8 10 8 9 5 0 5 13 -11 -1 3 20
7 6 4 3 4 5 6 7 6 5 5 7 6 10 14 15 3 2 5 7 12 11 11 13 12 11 14 2 14 15 16 10 8 7 6 10 10 12 14 9 16 30 18 6 -8
5 3 3 4 5 4 4 5 5 6 8 11 10 13 16 14 2 7 6 12 9 9 10 11 10 9 11 15 10 -3 5 4 7 6 12 11 11 11 5 11 13 12 14 27 12
2 4 5 6 6 6 6 8 7 7 10 6 13 16 23 -4 6 9 13 8 9 11 12 12 9 10 -1 15 -7 4 10 12 29 23 25 3 6 12 19 19 16 8 7 12 27
8 7 5 5 9 9 9 9 7 7 13 10 17 18 -8 2 9 16 9 6 9 11 14 13 12 12 13 6 14 14 24 9 -8 -9 7 9 -7 6 14 16 10 11 17 16 16
3 5 7 5 8 10 9 6 8 11 8 17 15 21 -16 6 13 8 8 10 11 11 12 9 13 14 12 12 9 15 -11 -3 12 13 2 -1 -10 2 -7 -2 -1 3 8 13 17
5 8 7 9 10 9 8 11 12 16 9 17 2 21 -1 8 18 1 9 14 11 13 19 12 16 24 8 0 -3 0 4 4 12 1 14 2 -4 6 9 10 12 15 11 14 8
8 9 14 17 12 12 14 11 10 16 21 15 -0 6 5 11 15 8 12 15 12 23 7 11 22 3 3 9 8 7 7 9 12 23 19 14 13 11 12 14 10 12 13 16 7
11 14 15 13 12 10 11 9 10 9 19 -12 -8 8 5 15 -1 7 10 18 14 15 11 11 5 -13 7 10 7 11 8 8 11 -7 5 11 8 8 20 23 31 13 15 16 13
14 12 12 9 12 10 9 7 12 23 17 -12 -13 7 5 15 -8 7 10 12 15 14 14 16 -1 5 5 8 4 8 29 12 2 -4 25 32 23 33 15 21 20 17 21 15 14
8 18 11 10 9 9 9 7 21 27 4 -17 -6 -0 6 14 -10 5 10 11 12 6 22 18 -10 9 16 5 6 27 -4 -1 4 31 -3 -17 2 -6 14 19 19 24 24 17 25
7 7 8 6 5 10 9 12 18 23 6 1 -10 0 10 13 8 -10 10 10 12 13 22 -5 20 6 1 18 16 -15 4 16 15 14 23 9 28 -14 27 17 9 29 13 23 11
7 10 7 6 7 9 6 17 13 18 -10 21 3 7 8 6 5 8 10 7 20 14 20 22 4 5 -4 17 21 0 13 51 38 25 24 2 10 -45 16 11 32 31 6 15 13
11 2 4 2 5 7 8 20 7 9 -6 -10 -0 14 6 4 8 9 7 5 11 26 8 28 15 4 -4 16 33 4 15 17 7 7 9 10 21 -22 15 20 26 25 18 30 40
-0 10 0 5 2 7 8 22 16 -12 5 9 12 18 5 6 1 11 5 -1 -1 6 38 4 18 -2 11 11 2 7 6 18 15 4 -19 10 -7 -16 17 19 28 18 8 14 29
4 9 14 1 4 12 7 11 8 8 6 8 19 18 5 0 19 20 4 1 -3 1 37 11 18 -1 15 9 19 0 -14 44 7 38 16 10 -9 8 28 8 12 18 -3 9 -2
25 22 6 6 15 10 9 12 13 8 9 11 12 7 9 1 13 10 9 1 3 4 20 -5 9 -3 23 12 -4 14 7 13 4 12 19 5 -13 -16 12 6 10 12 13 1 11
3 9 7 17 9 4 8 6 9 9 11 19 6 10 5 9 12 6 -3 20 1 11 19 17 17 -29 15 -1 -2 18 -1 24 29 10 8 12 0 9 16 8 6 3 5 8 2
10 13 11 5 30 5 6 7 8 8 9 12 14 7 8 7 18 8 -2 2 4 13 13 -1 14 5 6 10 6 17 -4 12 19 -18 6 6 -12 12 19 12 6 5 5 5 4
3 5 0 9 -7 5 8 14 6 10 8 6 9 11 10 8 20 7 2 9 5 16 5 4 -3 11 18 6 -7 9 -2 9 43 29 -1 20 -8 7 15 13 15 10 10 10 7
10 2 12 29 -2 9 5 13 7 8 12 6 12 10 8 7 10 -3 1 -1 6 22 5 18 3 7 -13 -14 -12 -2 10 9 15 11 2 3 6 13 15 12 10 12 8 7 12
5 6 1 -6 2 8 6 10 5 9 8 10 5 7 10 12 9 14 2 3 9 10 5 12 11 3 7 31 25 16 1 8 12 5 15 3 8 11 10 12 16 11 11 10 9
6 10 7 2 7 6 6 3 12 6 8 10 8 7 10 11 5 9 5 7 19 4 3 13 2 1 32 11 5 1 25 16 13 10 6 9 6 10 8 7 11 14 16 15 11
8 6 7 1 10 7 12 4 3 8 20 3 7 8 9 11 9 10 8 5 10 14 10 15 2 18 11 -4 22 39 2 8 9 12 6 7 6 4 3 3 4 4 6 12 15
Height
3154 3151 3149 3146 3143 3141 3138 3135 3132 3129 3125 3121 3118 3116 3113 3110 3106 3103 3101 3099 3097 3095 3093 3091 3090 3090 3089 3087 3087 3088 3087 3083 3086 3087 3087 3085 3078 3083 3080 3082 3087 3086 3087 3086 3088
3153 3151 3149 3146 3143 3140 3137 3133 3130 3127 3123 3119 3115 3112 3108 3105 3102 3099 3097 3095 3093 3092 3090 3088 3086 3084 3083 3081 3080 3081 3080 3082 3079 3076 3076 3077 3071 3074 3075 3078 3080 3080 3080 3080 3081
3153 3151 3148 3146 3143 3139 3136 3132 3129 3125 3121 3117 3113 3108 3105 3102 3099 3097 3095 3093 3090 3088 3085 3082 3080 3079 3077 3076 3074 3074 3074 3076 3072 3071 3069 3067 3066 3067 3068 3067 3073 3075 3075 3067 3073
3153 3150 3147 3145 3142 3138 3135 3131 3127 3122 3118 3114 3111 3106 3102 3099 3100 3094 3093 3090 3087 3083 3080 3078 3076 3075 3074 3073 3069 3069 3069 3068 3066 3065 3063 3060 3058 3056 3058 3059 3063 3065 3062 3064 3069
3152 3149 3146 3143 3140 3136 3132 3128 3124 3120 3116 3112 3108 3104 3100 3098 3096 3092 3088 3086 3083 3079 3076 3073 3072 3070 3070 3068 3066 3064 3064 3062 3061 3059 3057 3054 3052 3050 3047 3050 3054 3056 3058 3059 3063
3151 3148 3145 3141 3138 3134 3130 3126 3122 3118 3113 3109 3105 3102 3099 3098 3095 3090 3085 3082 3078 3075 3072 3069 3068 3066 3064 3064 3063 3061 3058 3057 3056 3054 3051 3048 3046 3045 3044 3046 3044 3045 3046 3050 3053
3149 3146 3142 3138 3135 3131 3127 3123 3118 3114 3110 3106 3102 3099 3098 3098 3093 3088 3082 3077 3075 3072 3069 3067 3064 3063 3061 3060 3058 3056 3053 3051 3050 3050 3048 3044 3037 3038 3040 3039 3037 3037 3037 3039 3043
3147 3144 3140 3135 3131 3127 3123 3119 3115 3111 3107 3103 3100 3097 3096 3093 3088 3084 3081 3075 3072 3069 3066 3064 3061 3059 3057 3056 3054 3052 3052 3050 3049 3046 3045 3042 3028 3035 3036 3034 3032 3031 3030 3030 3033
3145 3142 3137 3133 3128 3123 3120 3116 3113 3108 3104 3101 3099 3096 3095 3091 3086 3082 3078 3074 3070 3066 3063 3061 3058 3056 3054 3055 3055 3051 3048 3046 3043 3045 3039 3036 3024 3025 3027 3026 3023 3022 3021 3022 3024
3144 3140 3135 3130 3125 3121 3117 3112 3109 3106 3103 3100 3098 3099 3095 3091 3085 3082 3077 3073 3068 3064 3060 3059 3057 3056 3055 3056 3053 3049 3045 3040 3037 3037 3034 3030 3020 3019 3021 3019 3015 3013 3014 3014 3015
3141 3138 3132 3127 3123 3119 3115 3110 3107 3105 3101 3100 3100 3098 3094 3088 3084 3080 3076 3072 3068 3063 3062 3059 3059 3059 3056 3052 3050 3046 3041 3037 3033 3031 3027 3023 3017 3014 3013 3010 3006 3005 3005 3005 3007
3138 3135 3130 3125 3121 3117 3113 3110 3105 3104 3100 3100 3098 3094 3092 3088 3085 3082 3078 3072 3068 3065 3062 3061 3059 3055 3053 3049 3047 3044 3038 3033 3029 3028 3024 3017 3009 3006 3005 3000 2996 2996 2997 2997 3001
3135 3132 3128 3124 3119 3116 3112 3107 3103 3099 3099 3099 3097 3093 3089 3084 3081 3077 3074 3071 3067 3063 3061 3059 3058 3053 3050 3048 3044 3039 3034 3030 3026 3018 3015 3010 3003 2999 2998 2993 2988 2990 2989 2990 2994
3133 3131 3127 3123 3121 3114 3110 3105 3101 3098 3098 3101 3096 3092 3088 3084 3079 3077 3074 3072 3067 3064 3059 3057 3055 3051 3048 3046 3042 3033 3032 3027 3020 3018 3012 3010 3002 2998 2994 2990 2985 2982 2983 2986 2988
3133 3130 3126 3121 3118 3114 3110 3104 3100 3099 3101 3102 3096 3094 3088 3087 3085 3080 3074 3071 3067 3064 3061 3060 3053 3050 3047 3043 3038 3032 3026 3020 3014 3013 3011 3006 3003 2998 2992 2987 2983 2980 2980 2980 2982
3132 3129 3125 3121 3117 3113 3109 3104 3102 3102 3101 3099 3097 3093 3090 3086 3083 3080 3075 3073 3068 3063 3059 3056 3053 3050 3046 3040 3038 3033 3022 3014 3010 3009 3005 3005 3004 2998 2994 2990 2981 2976 2979 2980 2981
3130 3128 3125 3120 3117 3113 3108 3105 3104 3102 3104 3101 3096 3091 3089 3086 3083 3078 3072 3068 3066 3062 3059 3055 3056 3052 3047 3040 3037 3032 3025 3015 3009 3005 3004 3005 3003 3006 2999 2991 2983 2981 2981 2980 2981
3128 3126 3123 3119 3116 3112 3108 3106 3103 3104 3101 3099 3095 3091 3088 3086 3084 3080 3077 3074 3071 3068 3062 3059 3055 3052 3048 3045 3040 3034 3033 3030 3021 3009 3005 3005 3008 3008 3003 2997 2988 2984 2983 2983 2982
3124 3123 3120 3118 3115 3111 3109 3106 3106 3104 3101 3097 3093 3092 3091 3087 3085 3080 3075 3074 3072 3069 3067 3062 3057 3052 3049 3046 3043 3037 3035 3031 3026 3014 3010 3007 3009 3006 3006 3001 2995 2990 2989 2987 2987
3119 3119 3118 3115 3113 3110 3108 3106 3104 3103 3100 3098 3095 3094 3092 3089 3086 3082 3077 3075 3073 3069 3066 3064 3058 3051 3049 3047 3045 3043 3040 3033 3029 3020 3010 3008 3007 3013 3005 3000 2999 2999 2995 2995 2994
3118 3117 3116 3113 3111 3109 3107 3105 3102 3101 3099 3098 3094 3093 3091 3087 3085 3082 3080 3076 3072 3069 3066 3063 3062 3054 3049 3048 3046 3043 3039 3037 3033 3030 3022 3014 3015 3016 3013 3011 3009 3008 3004 3003 3002
3118 3117 3114 3111 3110 3107 3106 3104 3102 3099 3097 3095 3093 3091 3089 3086 3082 3081 3079 3076 3072 3068 3065 3064 3060 3055 3051 3049 3047 3045 3044 3041 3037 3033 3028 3024 3023 3015 3016 3013 3013 3013 3012 3011 3009
3115 3114 3113 3109 3108 3105 3104 3103 3099 3097 3095 3093 3092 3089 3087 3084 3083 3079 3078 3075 3072 3068 3066 3064 3062 3057 3050 3050 3048 3045 3044 3042 3038 3034 3032 3027 3027 3023 3016 3015 3015 3015 3016 3016 3016
3114 3112 3110 3108 3105 3103 3101 3100 3097 3094 3093 3092 3090 3087 3085 3082 3080 3079 3077 3074 3071 3068 3065 3063 3060 3060 3058 3054 3051 3045 3044 3042 3039 3037 3033 3032 3029 3024 3022 3020 3019 3019 3018 3018 3021
3110 3108 3107 3105 3102 3100 3099 3098 3095 3092 3091 3089 3087 3085 3083 3080 3078 3076 3075 3072 3069 3067 3064 3063 3059 3056 3052 3048 3046 3045 3043 3042 3040 3038 3036 3034 3031 3028 3024 3021 3021 3020 3021 3020 3021
3105 3105 3102 3100 3098 3096 3095 3094 3092 3090 3088 3086 3084 3082 3080 3079 3077 3074 3072 3070 3068 3065 3063 3061 3058 3053 3047 3046 3045 3042 3041 3040 3039 3038 3036 3034 3033 3031 3030 3027 3025 3024 3023 3023 3022
3101 3099 3097 3095 3095 3093 3092 3090 3088 3087 3085 3083 3081 3079 3077 3076 3073 3071 3069 3067 3065 3063 3060 3058 3056 3053 3049 3045 3042 3041 3040 3039 3038 3037 3036 3035 3034 3032 3032 3031 3029 3027 3025 3025 3024